Abilene, TX

6:30 PM CDT on July 20, 2017 (GMT -0500)
Abilene Regional

Weather History for KABI - October, 2013

Change the Weather History Date:

Monday, October 7, 2013

  Actual Average Record
Temperature  
Mean Temperature 67 °F 68 °F  
Max Temperature 83 °F 80 °F 99 °F (1979)
Min Temperature 50 °F 57 °F 39 °F (2000)
Degree Days  
Heating Degree Days 0 2  
Month to date heating degree days 6 10  
Since 1 July heating degree days 6 21  
Cooling Degree Days 2 5  
Month to date cooling degree days 62 41  
Year to date cooling degree days 2631 2312  
Growing Degree Days 16 (Base 50)    
Moisture  
Dew Point 38 °F    
Average Humidity 41    
Maximum Humidity 63    
Minimum Humidity 19    
Precipitation  
Precipitation 0.00 in 0.09 in 1.57 in (1887)
Month to date precipitation 0.40 0.61  
Year to date precipitation 19.91 19.81  
Sea Level Pressure  
Sea Level Pressure 30.10 in    
Wind  
Wind Speed 4 mph (South)    
Max Wind Speed 9 mph    
Max Gust Speed 10 mph    
Visibility 10 miles    
Events      
T = Trace of Precipitation, MM = Missing Value Source: NWS Daily Summary

Daily Weather History Graph

Daily Weather History Graph

Search for Another Location

Airport or City:

Trip Planner

Search our weather history database for the weather conditions in past years. The results will help you decide how hot, cold, wet, or windy it might be!

Date:

Astronomy

Oct. 07, 2013 Rise Set
Actual Time 7:37 AM CDT 7:15 PM CDT
Civil Twilight 7:12 AM CDT 7:39 PM CDT
Nautical Twilight 6:43 AM CDT 8:08 PM CDT
Astronomical Twilight 6:15 AM CDT 8:36 PM CDT
Moon 10:18 AM CDT (10/7) 9:12 PM CDT (10/7)
Length of Visible Light 12h 27m
Length of Day
11h 38m
Waxing Crescent, 9% of the Moon is Illuminated
Oct 7
Waxing Crescent
Oct 11
First Quarter
Oct 18
Full
Oct 26
Last Quarter
Nov 3
New

Hourly Weather History & Observations

Time (CDT) Temp. Dew Point Humidity Pressure Visibility Wind Dir Wind Speed Gust Speed Precip Events Conditions
12:52 AM 51.1 °F 39.0 °F 63% 30.12 in 10.0 mi SSW 8.1 mph - N/A   Clear
1:52 AM 53.1 °F 37.0 °F 55% 30.12 in 10.0 mi South 5.8 mph - N/A   Clear
2:52 AM 54.0 °F 35.1 °F 49% 30.12 in 10.0 mi South 5.8 mph - N/A   Clear
3:52 AM 54.0 °F 34.0 °F 47% 30.11 in 10.0 mi South 4.6 mph - N/A   Clear
4:52 AM 54.0 °F 35.1 °F 49% 30.10 in 10.0 mi South 5.8 mph - N/A   Clear
5:52 AM 53.1 °F 36.0 °F 52% 30.10 in 10.0 mi SSW 5.8 mph - N/A   Clear
6:52 AM 54.0 °F 35.1 °F 49% 30.11 in 10.0 mi South 4.6 mph - N/A   Clear
7:52 AM 53.1 °F 35.1 °F 50% 30.13 in 10.0 mi South 4.6 mph - N/A   Clear
8:52 AM 57.9 °F 39.9 °F 51% 30.16 in 10.0 mi North 4.6 mph - N/A   Clear
9:52 AM 63.0 °F 41.0 °F 45% 30.18 in 10.0 mi North 4.6 mph - N/A   Clear
10:52 AM 68.0 °F 37.9 °F 33% 30.18 in 9.0 mi West 4.6 mph - N/A   Clear
11:52 AM 75.0 °F 37.0 °F 25% 30.16 in 10.0 mi Calm Calm - N/A   Clear
12:52 PM 78.1 °F 34.0 °F 20% 30.14 in 10.0 mi Calm Calm - N/A   Clear
1:52 PM 80.1 °F 37.0 °F 21% 30.12 in 10.0 mi West 3.5 mph - N/A   Clear
2:52 PM 82.0 °F 37.0 °F 20% 30.09 in 10.0 mi Calm Calm - N/A   Clear
3:52 PM 80.1 °F 35.1 °F 20% 30.07 in 10.0 mi Calm Calm - N/A   Clear
4:52 PM 80.1 °F 36.0 °F 20% 30.05 in 10.0 mi Calm Calm - N/A   Clear
5:52 PM 82.0 °F 37.9 °F 21% 30.04 in 10.0 mi Calm Calm - N/A   Clear
6:52 PM 77.0 °F 43.0 °F 30% 30.04 in 10.0 mi Calm Calm - N/A   Clear
7:52 PM 72.0 °F 42.1 °F 34% 30.06 in 10.0 mi ESE 6.9 mph - N/A   Clear
8:52 PM 66.0 °F 44.1 °F 45% 30.07 in 10.0 mi SE 4.6 mph - N/A   Clear
9:52 PM 62.1 °F 44.1 °F 52% 30.08 in 10.0 mi SE 5.8 mph - N/A   Clear
10:52 PM 59.0 °F 44.1 °F 58% 30.08 in 10.0 mi SE 4.6 mph - N/A   Clear
11:52 PM 59.0 °F 43.0 °F 55% 30.06 in 10.0 mi SSE 5.8 mph - N/A   Clear